Content
SEND FEEDBACK

Daily
Averages
Monthly
Summary
United States of America

RAPID CITY, SOUTH DAKOTA


Home > North America > United States > South Dakota
Elevation: 963 meters     Latitude: 44 03N     Longitude: 103 04W

WEATHER
 
SELECT A DAY
Number of Records: 200,329;   Date Range: 1/1/95 - 7/29/14
 
SHARE

PRINT THIS DATA

[ ← Previous Day ]
WEATHER ALMANAC - 25 FEBRUARY, 2013
[ Next Day → ]
[ °F ]   °C
Weather ElementAverageHighLow
Temperature-1.6 °C9.4 °C (1:52 pm)-11.7 °C (6:52 am)
Dewpoint-11.2 °C-7.8 °C (10:52 am)-16.7 °C (2:52 pm)
Humidity54.5 %80 % (4:52 am)15 % (2:52 pm)
Barometer1015.9 hPa1021.3 hPa (1:52 am)1011.9 hPa (2:52 pm)
Wind Speed14.3 km/h33.3 km/h (1:52 pm)
Wind Gust48.1 km/h (3:52 pm)
Weather ElementAverage
Visibility16.1 km
Wind DirectionSSE (159.1 °)

Weather ElementTotal
Precipitation---
Heating Degree Days19.5 (Base 18.3)
Averaged from 23 records on 25 February, 2013
WEATHER CONDITIONS BREAKOUT
WIND DIRECTION BREAKOUT
WEATHER BY HOUR - 25 FEBRUARY, 2013
[ °F ]   °C
Local TimeTemperatureDewpointHumidityBarometerVisibilityWind DirectionWind SpeedGust SpeedPrecipitationEventsConditions
1:52 AM-5.6 °C-10 °C72 %1021.3 hPa16.1 kmWNW (290°)13 km/hClear
2:52 AM-7 °C-11 °C74 %1017.3 hPa16.1 kmWest (280°)11.1 km/hClear
3:52 AM-8.9 °C-12.2 °C77 %1021 hPa16.1 kmWNW (290°)5.6 km/hClear
4:52 AM-11.1 °C-13.9 °C80 %1021.3 hPa16.1 kmWNW (300°)7.4 km/hClear
5:52 AM-11.1 °C-14.4 °C77 %1021 hPa16.1 kmWNW (300°)9.3 km/hClear
6:52 AM-11.7 °C-15 °C77 %1021.3 hPa16.1 kmCalmClear
7:52 AM-5.6 °C-10 °C72 %1020.3 hPa16.1 kmCalmClear
8:52 AM-3.9 °C-8.3 °C72 %1020 hPa16.1 kmSE (140°)7.4 km/hClear
9:52 AM0 °C-8.9 °C52 %1018.6 hPa16.1 kmSE (140°)9.3 km/hClear
10:52 AM2.2 °C-7.8 °C48 %1017.3 hPa16.1 kmSE (140°)16.7 km/hClear
11:52 AM6.1 °C-8.9 °C34 %1015.9 hPa16.1 kmSSE (160°)24.1 km/hClear
12:52 PM8.3 °C-11.7 °C23 %1013.9 hPa16.1 kmSSE (160°)27.8 km/h37 km/hClear
1:52 PM9.4 °C-13.9 °C18 %1012.9 hPa16.1 kmSouth (170°)33.3 km/h40.7 km/hClear
2:52 PM9.4 °C-16.7 °C15 %1011.9 hPa16.1 kmSSE (160°)33.3 km/h44.4 km/hClear
3:52 PM7.8 °C-12.2 °C23 %1011.9 hPa16.1 kmSSE (160°)31.5 km/h48.1 km/hClear
4:52 PM5.6 °C-11.1 °C29 %1012.2 hPa16.1 kmSouth (170°)33.3 km/hClear
5:52 PM2.2 °C-10 °C41 %1012.9 hPa16.1 kmSouth (170°)22.2 km/hClear
6:52 PM0.6 °C-9.4 °C48 %1013.2 hPa16.1 kmSouth (190°)16.7 km/hClear
7:52 PM-0.6 °C-10 °C50 %1012.2 hPa16.1 kmSouth (190°)13 km/hClear
8:52 PM-3.3 °C-10.6 °C58 %1012.5 hPa16.1 kmSE (140°)7.4 km/hClear
9:52 PM-5.6 °C-10.6 °C68 %1012.5 hPa16.1 kmESE (110°)5.6 km/hClear
10:52 PM-5 °C-10 °C68 %1011.9 hPa16.1 kmCalmClear
11:52 PM-8.3 °C-11.7 °C77 %1011.9 hPa16.1 kmCalmClear
Hourly data recorded from KRAP, located 0 kilometers away from Rapid City, South Dakota







STORIES FROM OUR PARTNERS